Parsons, KS

8:01 PM CDT on June 26, 2017 (GMT -0500)
Tri-City

Weather History for KPPF - September, 2013

Change the Weather History Date:

Wednesday, September 25, 2013

  Actual Average Record
Temperature  
Mean Temperature 66 °F -  
Max Temperature 81 °F 77 °F 91 °F (1984)
Min Temperature 53 °F 55 °F 36 °F (1989)
Cooling Degree Days 2    
Growing Degree Days 16 (Base 50)    
Moisture  
Dew Point 57 °F    
Average Humidity 75    
Maximum Humidity 93    
Minimum Humidity 47    
Precipitation  
Precipitation 0.00 in - - ()
Sea Level Pressure  
Sea Level Pressure 29.86 in    
Wind  
Wind Speed 1 mph (SSE)    
Max Wind Speed 7 mph    
Max Gust Speed -    
Visibility 9 miles    
Events      
Averages and records for this station are not official NWS values.
T = Trace of Precipitation, MM = Missing Value Source: NWS Daily Summary

Daily Weather History Graph

Daily Weather History Graph

Search for Another Location

Airport or City:

Trip Planner

Search our weather history database for the weather conditions in past years. The results will help you decide how hot, cold, wet, or windy it might be!

Date:

Astronomy

Sep. 25, 2013 Rise Set
Actual Time 7:12 AM CDT 7:13 PM CDT
Civil Twilight 6:46 AM CDT 7:39 PM CDT
Nautical Twilight 6:16 AM CDT 8:10 PM CDT
Astronomical Twilight 5:45 AM CDT 8:40 PM CDT
Moon 11:27 PM CDT (9/25) 1:12 PM CDT (9/25)
Length of Visible Light 12h 53m
Length of Day
12h 01m
Waning Gibbous, 64% of the Moon is Illuminated
Sep 25
Waning Gibbous
Sep 26
Last Quarter
Oct 4
New
Oct 11
First Quarter
Oct 18
Full

Hourly Weather History & Observations

Time (CDT) Temp. Heat Index Dew Point Humidity Pressure Visibility Wind Dir Wind Speed Gust Speed Precip Events Conditions
12:52 AM 57.9 °F - 55.0 °F 90% 29.88 in 10.0 mi Calm Calm - N/A   Clear
1:52 AM 57.9 °F - 55.0 °F 90% 29.87 in 10.0 mi Calm Calm - N/A   Clear
2:52 AM 55.0 °F - 53.1 °F 93% 29.86 in 10.0 mi Calm Calm - N/A   Clear
3:52 AM 55.0 °F - 53.1 °F 93% 29.86 in 9.0 mi Calm Calm - N/A   Clear
4:52 AM 54.0 °F - 51.1 °F 90% 29.87 in 7.0 mi Calm Calm - N/A   Clear
5:52 AM 54.0 °F - 51.1 °F 90% 29.88 in 7.0 mi Calm Calm - N/A   Clear
6:52 AM 53.1 °F - 51.1 °F 93% 29.89 in 6.0 mi Calm Calm - N/A   Clear
7:52 AM 55.0 °F - 53.1 °F 93% 29.90 in 5.0 mi Calm Calm - N/A   Clear
8:52 AM 61.0 °F - 57.9 °F 90% 29.91 in 10.0 mi Calm Calm - N/A   Clear
9:52 AM 66.9 °F - 60.1 °F 79% 29.91 in 10.0 mi Calm Calm - N/A   Clear
10:52 AM 71.1 °F - 60.1 °F 68% 29.91 in 10.0 mi NW 4.6 mph - N/A   Clear
11:52 AM 75.0 °F - 59.0 °F 57% 29.91 in 10.0 mi Calm Calm - N/A   Clear
12:52 PM 77.0 °F - 59.0 °F 54% 29.88 in 10.0 mi Variable 3.5 mph - N/A   Clear
1:52 PM 78.1 °F - 57.9 °F 50% 29.86 in 10.0 mi Variable 3.5 mph - N/A   Clear
2:52 PM 79.0 °F - 59.0 °F 50% 29.84 in 10.0 mi SW 6.9 mph - N/A   Clear
3:52 PM 80.1 °F 80.6 °F 57.9 °F 47% 29.83 in 10.0 mi South 4.6 mph - N/A   Clear
4:52 PM 80.1 °F 80.7 °F 59.0 °F 48% 29.81 in 10.0 mi South 3.5 mph - N/A   Clear
5:52 PM 80.1 °F 80.7 °F 59.0 °F 48% 29.81 in 10.0 mi Calm Calm - N/A   Clear
6:52 PM 73.0 °F - 64.0 °F 73% 29.81 in 10.0 mi Calm Calm - N/A   Clear
7:52 PM 66.9 °F - 62.1 °F 84% 29.82 in 10.0 mi East 3.5 mph - N/A   Clear
8:52 PM 69.1 °F - 60.1 °F 73% 29.82 in 10.0 mi Calm Calm - N/A   Clear
9:52 PM 64.0 °F - 60.1 °F 87% 29.83 in 10.0 mi Calm Calm - N/A   Clear
10:52 PM 66.0 °F - 59.0 °F 78% 29.83 in 10.0 mi ESE 3.5 mph - N/A   Clear
11:52 PM 66.0 °F - 59.0 °F 78% 29.83 in 10.0 mi ESE 3.5 mph - N/A   Clear